Location: Lango�lan
(48.1202°N, 3.2340°W)
Time: 19:43:08
(UTC+00:00)

Cosmos 1814 Rocket - Pass Details

Date: 23 October 2019
Orbit: 744 x 788 km, 74.1° (Epoch: 11 November)

Event Time Altitude Azimuth Distance (km) Brightness Sun altitude
Rises 06:06:50 0° 334° (NNW) 3,293 6.9 -6.8°
Reaches altitude 10° 06:09:16 10° 330° (NNW) 2,361 6.2 -6.4°
Maximum altitude 06:14:30 55° 254° (WSW) 941 4.2 -5.6°
Drops below altitude 10° 06:19:42 10° 177° (S) 2,337 6.7 -4.7°
Sets 06:22:06 0° 173° (S) 3,257 7.5 -4.3°
